Location: Ferintosh
(52.7647°N, 112.9692°W)
Time: 18:01:00
(UTC+00:00)

Explorer 7 - Pass Details

Date: 24 May 2024
Orbit: 466 x 622 km, 50.3° (Epoch: 15 June)

Event Time Altitude Azimuth Distance (km) Brightness Sun altitude
Rises 06:04:05 0° 222° (SW) 2,521 - -14.1°
Reaches altitude 10° 06:06:25 10° 210° (SSW) 1,664 - -14.2°
Exits shadow 06:09:37 27° 151° (SSE) 987 7.5 -14.4°
Maximum altitude 06:09:37 27° 151° (SSE) 987 7.5 -14.4°
Drops below altitude 10° 06:12:57 10° 93° (E) 1,737 9.2 -14.5°
Sets 06:15:26 0° 81° (E) 2,658 10.2 -14.7°
